Time,TemperatureF,DewpointF,PressureIn,WindDirection,WindDirectionDegrees,WindSpeedMPH,WindSpeedGustMPH,Humidity,HourlyPrecipIn,Conditions,Clouds,dailyrainin,SoftwareType,DateUTC
2013-08-22 00:11:00,54.0,51.0,29.96,West,261,0.0,1.0,90,0.00,,,0.00,,2013-08-22 07:11:00,
2013-08-22 00:21:00,54.0,51.0,29.96,West,261,0.0,1.0,89,0.00,,,0.00,,2013-08-22 07:21:00,
2013-08-22 00:42:00,54.0,51.0,29.96,West,261,1.0,2.0,89,0.00,,,0.00,,2013-08-22 07:42:00,
2013-08-22 00:52:00,54.0,51.0,29.96,West,261,0.0,1.0,88,0.00,,,0.00,,2013-08-22 07:52:00,
2013-08-22 01:12:00,54.0,51.0,29.96,West,261,1.0,2.0,88,0.00,,,0.00,,2013-08-22 08:12:00,
2013-08-22 01:22:00,54.0,51.0,29.96,West,261,0.0,2.0,89,0.00,,,0.00,,2013-08-22 08:22:00,
2013-08-22 01:43:00,53.0,50.0,29.95,West,261,0.0,1.0,90,0.00,,,0.00,,2013-08-22 08:43:00,
2013-08-22 01:53:00,53.0,50.0,29.95,West,261,0.0,0.0,91,0.00,,,0.00,,2013-08-22 08:53:00,
2013-08-22 02:11:00,53.0,50.0,29.95,West,261,0.0,1.0,91,0.00,,,0.00,,2013-08-22 09:11:00,
2013-08-22 02:22:00,53.0,50.0,29.95,West,261,1.0,2.0,91,0.00,,,0.00,,2013-08-22 09:22:00,
2013-08-22 02:43:00,53.0,51.0,29.95,West,272,1.0,2.0,93,0.00,,,0.00,,2013-08-22 09:43:00,
2013-08-22 02:53:00,53.0,51.0,29.95,West,277,1.0,3.0,92,0.00,,,0.00,,2013-08-22 09:53:00,
2013-08-22 03:12:00,52.0,50.0,29.96,West,277,0.0,2.0,93,0.00,,,0.00,,2013-08-22 10:12:00,
2013-08-22 03:22:00,52.0,51.0,29.96,West,277,1.0,2.0,95,0.00,,,0.00,,2013-08-22 10:22:00,
2013-08-22 03:42:00,52.0,51.0,29.96,WNW,283,1.0,3.0,96,0.00,,,0.00,,2013-08-22 10:42:00,
2013-08-22 05:42:00,52.0,51.0,29.95,WSW,246,1.0,2.0,98,0.00,,,0.00,,2013-08-22 12:42:00,
2013-08-22 05:52:00,52.0,51.0,29.94,West,262,1.0,2.0,98,0.00,,,0.00,,2013-08-22 12:52:00,
2013-08-22 06:12:00,52.0,51.0,29.95,West,265,1.0,2.0,98,0.00,,,0.00,,2013-08-22 13:12:00,
2013-08-22 06:22:00,52.0,51.0,29.95,WSW,244,1.0,3.0,98,0.00,,,0.00,,2013-08-22 13:22:00,
2013-08-22 06:42:00,52.0,51.0,29.95,WSW,243,1.0,3.0,98,0.00,,,0.00,,2013-08-22 13:42:00,
2013-08-22 06:52:00,52.0,51.0,29.96,SW,234,1.0,3.0,98,0.00,,,0.00,,2013-08-22 13:52:00,
2013-08-22 07:11:00,52.0,51.0,29.95,WSW,239,0.0,3.0,98,0.00,,,0.00,,2013-08-22 14:11:00,
2013-08-22 07:22:00,52.0,51.0,29.96,West,267,1.0,3.0,98,0.00,,,0.00,,2013-08-22 14:22:00,
2013-08-22 07:52:00,53.0,52.0,29.98,WNW,288,1.0,3.0,98,0.00,,,0.00,,2013-08-22 14:52:00,
2013-08-22 08:11:00,53.0,52.0,29.98,WNW,283,1.0,4.0,98,0.00,,,0.00,,2013-08-22 15:11:00,
2013-08-22 08:22:00,53.0,52.0,29.99,SW,235,0.0,2.0,98,0.00,,,0.00,,2013-08-22 15:22:00,
2013-08-22 08:43:00,53.0,52.0,29.99,WSW,253,0.0,3.0,98,0.00,,,0.00,,2013-08-22 15:43:00,
2013-08-22 08:54:00,53.0,52.0,30.00,SW,236,1.0,3.0,98,0.00,,,0.00,,2013-08-22 15:54:00,
2013-08-22 09:14:00,53.0,52.0,30.00,WSW,256,2.0,3.0,98,0.00,,,0.00,,2013-08-22 16:14:00,
2013-08-22 09:24:00,53.0,52.0,30.00,SW,236,1.0,4.0,98,0.00,,,0.00,,2013-08-22 16:24:00,
2013-08-22 09:43:00,53.0,53.0,30.01,West,264,2.0,4.0,99,0.00,,,0.00,,2013-08-22 16:43:00,
2013-08-22 09:53:00,53.0,53.0,30.01,West,261,1.0,4.0,99,0.00,,,0.00,,2013-08-22 16:53:00,
2013-08-22 10:12:00,54.0,54.0,30.01,West,275,1.0,3.0,99,0.00,,,0.00,,2013-08-22 17:12:00,
2013-08-22 10:23:00,54.0,54.0,30.02,WSW,246,1.0,2.0,99,0.00,,,0.00,,2013-08-22 17:23:00,
2013-08-22 10:42:00,54.0,54.0,30.01,West,262,1.0,5.0,99,0.00,,,0.00,,2013-08-22 17:42:00,
2013-08-22 10:52:00,54.0,54.0,30.01,WSW,244,1.0,4.0,99,0.00,,,0.00,,2013-08-22 17:52:00,
2013-08-22 11:12:00,54.0,53.0,30.01,West,271,1.0,3.0,98,0.00,,,0.00,,2013-08-22 18:12:00,
2013-08-22 11:21:00,55.0,54.0,30.02,West,265,1.0,5.0,98,0.00,,,0.00,,2013-08-22 18:21:00,
2013-08-22 11:43:00,55.0,54.0,30.01,WSW,237,1.0,4.0,96,0.00,,,0.00,,2013-08-22 18:43:00,
2013-08-22 11:52:00,57.0,54.0,30.01,SSE,168,1.0,4.0,91,0.00,,,0.00,,2013-08-22 18:52:00,
2013-08-22 12:11:00,59.0,55.0,30.01,WSW,247,2.0,4.0,88,0.00,,,0.00,,2013-08-22 19:11:00,
2013-08-22 12:22:00,61.0,56.0,30.01,WSW,253,1.0,5.0,83,0.00,,,0.00,,2013-08-22 19:22:00,
2013-08-22 12:42:00,63.0,56.0,30.01,South,187,3.0,7.0,78,0.00,,,0.00,,2013-08-22 19:42:00,
2013-08-22 12:53:00,64.0,56.0,30.01,SW,225,3.0,6.0,76,0.00,,,0.00,,2013-08-22 19:53:00,
2013-08-22 13:11:00,65.0,57.0,30.00,WSW,240,3.0,7.0,75,0.00,,,0.00,,2013-08-22 20:11:00,
2013-08-22 13:23:00,66.0,56.0,30.00,West,259,2.0,6.0,70,0.00,,,0.00,,2013-08-22 20:23:00,
2013-08-22 13:32:00,66.0,56.0,30.00,West,259,2.0,6.0,70,0.00,,,0.00,,2013-08-22 20:32:00,
2013-08-22 13:42:00,66.0,56.0,30.00,West,259,2.0,6.0,70,0.00,,,0.00,,2013-08-22 20:42:00,
2013-08-22 13:52:00,68.0,57.0,29.99,WNW,301,2.0,5.0,67,0.00,,,0.00,,2013-08-22 20:52:00,
2013-08-22 14:13:00,70.0,57.0,29.99,WSW,239,4.0,6.0,64,0.00,,,0.00,,2013-08-22 21:13:00,
2013-08-22 14:22:00,71.0,56.0,29.98,WSW,252,3.0,7.0,60,0.00,,,0.00,,2013-08-22 21:22:00,
2013-08-22 14:44:00,72.0,56.0,29.98,WSW,242,2.0,6.0,57,0.00,,,0.00,,2013-08-22 21:44:00,
2013-08-22 14:54:00,73.0,57.0,29.98,SSW,213,3.0,7.0,57,0.00,,,0.00,,2013-08-22 21:54:00,
2013-08-22 15:13:00,73.0,56.0,29.98,SSE,153,2.0,7.0,56,0.00,,,0.00,,2013-08-22 22:13:00,
2013-08-22 15:24:00,73.0,56.0,29.98,West,270,2.0,8.0,55,0.00,,,0.00,,2013-08-22 22:24:00,
2013-08-22 15:42:00,73.0,55.0,29.97,WSW,237,2.0,7.0,53,0.00,,,0.00,,2013-08-22 22:42:00,
2013-08-22 15:53:00,73.0,55.0,29.97,WSW,251,2.0,6.0,54,0.00,,,0.00,,2013-08-22 22:53:00,
2013-08-22 16:11:00,74.0,56.0,29.96,NW,306,3.0,8.0,54,0.00,,,0.00,,2013-08-22 23:11:00,
2013-08-22 16:22:00,74.0,57.0,29.96,SSW,212,3.0,8.0,55,0.00,,,0.00,,2013-08-22 23:22:00,
2013-08-22 16:42:00,73.0,56.0,29.95,SW,235,3.0,8.0,55,0.00,,,0.00,,2013-08-22 23:42:00,
2013-08-22 16:52:00,72.0,56.0,29.96,West,271,3.0,8.0,57,0.00,,,0.00,,2013-08-22 23:52:00,
2013-08-22 17:11:00,72.0,56.0,29.95,WNW,282,3.0,6.0,57,0.00,,,0.00,,2013-08-23 00:11:00,
2013-08-22 17:23:00,71.0,56.0,29.95,West,271,3.0,6.0,59,0.00,,,0.00,,2013-08-23 00:23:00,
2013-08-22 17:42:00,71.0,56.0,29.95,West,281,2.0,7.0,59,0.00,,,0.00,,2013-08-23 00:42:00,
2013-08-22 17:52:00,71.0,56.0,29.94,West,266,3.0,5.0,59,0.00,,,0.00,,2013-08-23 00:52:00,
2013-08-22 18:11:00,70.0,55.0,29.94,WNW,300,3.0,7.0,60,0.00,,,0.00,,2013-08-23 01:11:00,
2013-08-22 18:21:00,69.0,55.0,29.94,West,263,2.0,7.0,61,0.00,,,0.00,,2013-08-23 01:21:00,
2013-08-22 18:41:00,69.0,55.0,29.94,WNW,297,2.0,6.0,62,0.00,,,0.00,,2013-08-23 01:41:00,
2013-08-22 18:52:00,67.0,54.0,29.94,WNW,302,2.0,7.0,63,0.00,,,0.00,,2013-08-23 01:52:00,
2013-08-22 19:11:00,65.0,54.0,29.94,WNW,298,2.0,5.0,67,0.00,,,0.00,,2013-08-23 02:11:00,
2013-08-22 19:22:00,64.0,54.0,29.94,WSW,249,2.0,6.0,69,0.00,,,0.00,,2013-08-23 02:22:00,
2013-08-22 19:42:00,63.0,53.0,29.94,SW,235,3.0,6.0,71,0.00,,,0.00,,2013-08-23 02:42:00,
2013-08-22 19:52:00,61.0,53.0,29.94,WSW,237,2.0,5.0,74,0.00,,,0.00,,2013-08-23 02:52:00,
2013-08-22 20:11:00,60.0,53.0,29.94,West,265,1.0,5.0,78,0.00,,,0.00,,2013-08-23 03:11:00,
2013-08-22 20:22:00,59.0,53.0,29.94,West,279,1.0,3.0,80,0.00,,,0.00,,2013-08-23 03:22:00,
2013-08-22 20:54:00,57.0,52.0,29.94,WSW,246,2.0,5.0,84,0.00,,,0.00,,2013-08-23 03:54:00,
2013-08-22 21:13:00,56.0,52.0,29.95,WNW,288,1.0,4.0,86,0.00,,,0.00,,2013-08-23 04:13:00,
2013-08-22 21:24:00,55.0,51.0,29.95,West,271,1.0,4.0,87,0.00,,,0.00,,2013-08-23 04:24:00,
2013-08-22 21:43:00,55.0,52.0,29.95,WNW,283,2.0,3.0,89,0.00,,,0.00,,2013-08-23 04:43:00,
2013-08-22 21:54:00,54.0,51.0,29.95,WNW,302,1.0,3.0,90,0.00,,,0.00,,2013-08-23 04:54:00,
2013-08-22 22:13:00,54.0,51.0,29.96,WSW,240,2.0,3.0,91,0.00,,,0.00,,2013-08-23 05:13:00,
2013-08-22 22:22:00,53.0,50.0,29.96,WNW,292,0.0,3.0,91,0.00,,,0.00,,2013-08-23 05:22:00,
2013-08-22 22:42:00,53.0,51.0,29.96,WSW,254,1.0,2.0,92,0.00,,,0.00,,2013-08-23 05:42:00,
2013-08-22 22:52:00,53.0,51.0,29.96,West,260,1.0,2.0,93,0.00,,,0.00,,2013-08-23 05:52:00,
2013-08-22 23:12:00,53.0,51.0,29.96,SW,234,1.0,3.0,93,0.00,,,0.00,,2013-08-23 06:12:00,
2013-08-22 23:21:00,53.0,51.0,29.96,WNW,301,1.0,3.0,94,0.00,,,0.00,,2013-08-23 06:21:00,
2013-08-22 23:41:00,53.0,52.0,29.96,WSW,241,1.0,3.0,95,0.00,,,0.00,,2013-08-23 06:41:00,
2013-08-22 23:52:00,53.0,52.0,29.96,West,271,0.0,2.0,95,0.00,,,0.00,,2013-08-23 06:52:00,